Date String (YYYY-MM-DD hh:mm:ss) UTC,Instrument flags,Ambient pressure (hPa),Sample flow (lpm),Bypass flow (lpm),Sample temperature (°C),Ambient temperature (°C),ASC tube jacket temperature (°C),LED temperature (°C),Box temperature (°C),Sample RH (%),Span deviation,Mass concentration (μg/m³),Mass concentration (μg/m³),Mass concentration (μg/m³)
DateTimeUTC,F1_M11,P_M11,Q1_M11,Q2_M11,T1_M11,T2_M11,T3_M11,T4_M11,T5_M11,U1_M11,ZSPAN_M11,X0_M11,X2_M11,X1_M11
2022-12-13 04:00:00,,0811.6,5.00,0.00,22.7,22.2,00.0,31.4,24.6,12.3,0000.1,0013.06,0005.67,0004.58
2022-12-13 04:01:00,,0811.6,5.03,0.00,22.7,22.0,00.0,31.4,24.6,12.3,-000.1,0012.48,0005.57,0004.57
2022-12-13 04:02:00,,0811.6,4.97,0.00,22.7,21.8,00.0,31.4,24.6,12.4,0000.0,0012.42,0005.57,0004.57
2022-12-13 04:03:00,,0811.6,4.99,0.00,22.7,21.7,00.0,31.4,24.5,12.3,0000.0,0012.30,0005.57,0004.57
2022-12-13 04:04:00,,0811.6,5.02,0.00,22.7,21.6,00.0,31.4,24.5,12.3,0000.0,0012.06,0005.57,0004.57
2022-12-13 04:05:00,,0811.5,4.99,0.00,22.7,21.5,00.0,31.4,24.5,12.3,0000.0,0012.35,0005.61,0004.57
2022-12-13 04:06:00,,0811.6,4.98,0.00,22.7,21.4,00.0,31.4,24.5,12.3,0000.0,0012.20,0005.62,0004.57
2022-12-13 04:07:00,,0811.5,5.03,0.00,22.7,21.3,00.0,31.4,24.5,12.3,0000.0,0012.15,0005.57,0004.58
2022-12-13 04:08:00,,0811.5,4.99,0.00,22.7,21.3,00.0,31.5,24.5,12.3,0000.0,0012.07,0005.51,0004.57
2022-12-13 04:09:00,,0811.5,5.00,0.00,22.7,21.3,00.0,31.5,24.5,12.3,0000.0,0011.90,0005.54,0004.57
2022-12-13 04:10:00,,0811.5,5.02,0.00,22.7,21.3,00.0,31.5,24.5,12.4,0000.0,0012.08,0005.53,0004.56
2022-12-13 04:11:00,,0811.5,4.98,0.00,22.6,21.3,00.0,31.5,24.5,12.4,0000.0,0012.13,0005.56,0004.57
2022-12-13 04:12:00,,0811.6,5.02,0.00,22.7,21.2,00.0,31.5,24.5,12.4,0000.0,0012.07,0005.60,0004.56
2022-12-13 04:13:00,,0811.6,4.99,0.00,22.7,21.2,00.0,31.5,24.5,12.3,0000.0,0012.41,0005.58,0004.54
2022-12-13 04:14:00,,0811.6,4.99,0.00,22.7,21.2,00.0,31.5,24.5,12.3,0000.0,0013.36,0005.55,0004.54
2022-12-13 04:15:00,,0811.6,5.03,0.00,22.7,21.2,00.0,31.5,24.5,12.3,0000.0,0013.07,0005.55,0004.53
2022-12-13 04:16:00,,0811.7,4.99,0.00,22.7,21.3,00.0,31.5,24.5,12.3,0000.0,0012.07,0005.54,0004.53
2022-12-13 04:17:00,,0811.7,4.99,0.00,22.7,21.2,00.0,31.5,24.5,12.3,0000.0,0012.67,0005.59,0004.53
2022-12-13 04:18:00,,0811.7,5.01,0.00,22.6,21.2,00.0,31.5,24.4,12.3,0000.0,0012.78,0005.60,0004.53
2022-12-13 04:19:00,,0811.7,5.00,0.00,22.6,21.2,00.0,31.5,24.4,12.3,0000.0,0012.98,0005.65,0004.54
2022-12-13 04:20:00,,0811.7,4.98,0.00,22.6,21.1,00.0,31.5,24.4,12.3,0000.0,0013.00,0005.68,0004.56
2022-12-13 04:21:00,,0811.8,5.03,0.00,22.6,21.1,00.0,31.5,24.4,12.4,0000.0,0013.18,0005.74,0004.58
2022-12-13 04:22:00,,0811.7,4.98,0.00,22.6,21.1,00.0,31.5,24.4,12.4,0000.0,0013.26,0005.73,0004.59
2022-12-13 04:23:00,,0811.7,5.00,0.00,22.6,21.1,00.0,31.5,24.4,12.4,0000.0,0013.37,0005.71,0004.61
2022-12-13 04:24:00,,0811.7,5.02,0.00,22.6,21.1,00.0,31.5,24.4,12.4,0000.0,0012.55,0005.67,0004.63
2022-12-13 04:25:00,,0811.7,4.98,0.00,22.6,21.0,00.0,31.4,24.3,12.4,0000.0,0011.61,0005.67,0004.64
2022-12-13 04:26:00,,0811.6,5.01,0.00,22.6,20.9,00.0,31.4,24.3,12.4,0000.0,0011.47,0005.66,0004.66
2022-12-13 04:27:00,,0811.6,5.00,0.00,22.5,20.8,00.0,31.4,24.3,12.4,0000.0,0011.77,0005.67,0004.67
2022-12-13 04:28:00,,0811.6,4.98,0.00,22.5,20.8,00.0,31.4,24.3,12.4,0000.0,0011.43,0005.66,0004.68
2022-12-13 04:29:00,,0811.6,5.03,0.00,22.5,20.8,00.0,31.4,24.3,12.5,0000.0,0011.45,0005.69,0004.71
2022-12-13 04:30:00,,0811.5,4.98,0.00,22.5,20.7,00.0,31.4,24.2,12.5,0000.0,0011.63,0005.69,0004.72
2022-12-13 04:31:00,,0811.6,5.00,0.00,22.4,20.7,00.0,31.4,24.2,12.5,0000.0,0012.00,0005.66,0004.72
2022-12-13 04:32:00,,0811.6,5.01,0.00,22.4,20.7,00.0,31.4,24.2,12.5,0000.0,0012.35,0005.68,0004.74
2022-12-13 04:33:00,,0811.6,4.98,0.00,22.4,20.7,00.0,31.3,24.2,12.5,0000.0,0012.76,0005.71,0004.78
2022-12-13 04:34:00,,0811.7,5.02,0.00,22.4,20.6,00.0,31.3,24.2,12.5,0000.0,0012.89,0005.77,0004.84
2022-12-13 04:35:00,,0811.7,4.98,0.00,22.4,20.6,00.0,31.3,24.2,12.6,0000.0,0013.16,0005.87,0004.88
2022-12-13 04:36:00,,0811.7,4.99,0.00,22.4,20.6,00.0,31.3,24.1,12.6,0000.0,0013.15,0005.92,0004.93
2022-12-13 04:37:00,,0811.7,5.01,0.00,22.3,20.6,00.0,31.3,24.1,12.6,0000.0,0013.06,0005.93,0004.96
2022-12-13 04:38:00,,0811.6,4.98,0.00,22.3,20.7,00.0,31.2,24.1,12.6,0000.0,0012.99,0005.95,0005.01
2022-12-13 04:39:00,,0811.6,5.02,0.00,22.3,20.7,00.0,31.2,24.1,12.6,0000.4,0012.78,0005.97,0005.04
2022-12-13 04:40:00,,0811.6,4.98,0.00,22.3,20.7,00.0,31.2,24.1,12.7,0001.0,0013.32,0005.93,0005.05
2022-12-13 04:41:00,,0811.6,5.02,0.00,22.3,20.7,00.0,31.2,24.1,12.7,0000.5,0013.19,0005.93,0005.06
2022-12-13 04:42:00,,0811.6,4.98,0.00,22.3,21.0,00.0,31.2,24.2,12.7,0001.3,0012.94,0005.97,0005.08
2022-12-13 04:43:00,,0811.6,5.01,0.00,22.4,21.8,00.0,31.2,24.4,12.7,0001.1,0012.84,0005.99,0005.11
2022-12-13 04:44:00,,0811.6,5.01,0.00,22.5,22.0,00.0,31.2,24.4,12.7,0000.5,0012.64,0006.00,0005.13
2022-12-13 04:45:00,,0811.6,4.98,0.00,22.5,21.7,00.0,31.2,24.4,12.7,-000.0,0012.65,0006.01,0005.16
2022-12-13 04:46:00,,0811.6,4.99,0.00,22.5,21.4,00.0,31.3,24.3,12.8,-000.2,0012.96,0006.01,0005.18
2022-12-13 04:47:00,,0811.5,5.02,0.00,22.4,21.2,00.0,31.3,24.3,12.8,-000.6,0013.62,0006.02,0005.21
2022-12-13 04:48:00,,0811.5,4.98,0.00,22.4,21.1,00.0,31.3,24.2,12.8,-000.0,0015.01,0006.08,0005.25
2022-12-13 04:49:00,,0811.5,4.99,0.00,22.4,20.9,00.0,31.3,24.2,12.8,0000.2,0014.87,0006.08,0005.27
2022-12-13 04:50:00,,0811.6,5.02,0.00,22.4,20.8,00.0,31.3,24.2,12.9,-000.2,0014.75,0006.13,0005.29
2022-12-13 04:51:00,,0811.5,4.98,0.00,22.4,20.8,00.0,31.3,24.1,12.9,-000.3,0014.52,0006.21,0005.33
2022-12-13 04:52:00,,0811.5,5.03,0.00,22.4,20.7,00.0,31.2,24.1,12.9,-000.1,0014.47,0006.28,0005.39
2022-12-13 04:53:00,,0811.5,4.98,0.00,22.3,20.6,00.0,31.2,24.1,12.9,-000.1,0015.63,0006.33,0005.45
2022-12-13 04:54:00,,0811.5,5.03,0.00,22.3,20.6,00.0,31.2,24.1,12.9,-000.0,0015.49,0006.36,0005.49
2022-12-13 04:55:00,,0811.5,4.98,0.00,22.3,20.6,00.0,31.2,24.1,12.9,0000.6,0015.40,0006.41,0005.52
2022-12-13 04:56:00,,0811.5,5.03,0.00,22.3,20.8,00.0,31.2,24.1,13.0,0000.8,0015.28,0006.47,0005.55
2022-12-13 04:57:00,,0811.6,4.99,0.00,22.4,21.6,00.0,31.2,24.3,12.9,0000.8,0015.02,0006.48,0005.58
2022-12-13 04:58:00,,0811.5,4.98,0.00,22.5,22.2,00.0,31.2,24.4,12.9,0000.9,0014.55,0006.50,0005.60
2022-12-13 04:59:00,,0811.5,4.99,0.00,22.5,22.0,00.0,31.2,24.4,12.9,0000.4,0013.29,0006.53,0005.61
